Weather History for KNRB - June, 2014

Change the Weather History Date:

Monday, June 16, 2014

  Actual Average Record
Temperature  
Mean Temperature 80 °F -  
Max Temperature 87 °F 85 °F 99 °F (1998)
Min Temperature 73 °F 72 °F 68 °F (1998)
Cooling Degree Days 14    
Growing Degree Days 30 (Base 50)    
Moisture  
Dew Point 71 °F    
Average Humidity 74    
Maximum Humidity 87    
Minimum Humidity 65    
Precipitation  
Precipitation 0.00 in - - ()
Sea Level Pressure  
Sea Level Pressure 30.14 in    
Wind  
Wind Speed 6 mph (SE)    
Max Wind Speed 14 mph    
Max Gust Speed -    
Visibility 10 miles    
Events Thunderstorm    
Averages and records for this station are not official NWS values.
T = Trace of Precipitation, MM = Missing Value Source: NWS Daily Summary

Daily Weather History Graph

Daily Weather History Graph

Search for Another Location

Airport or City:

Trip Planner

Search our weather history database for the weather conditions in past years. The results will help you decide how hot, cold, wet, or windy it might be!

Date:

Astronomy

Jun. 16, 2014 Rise Set
Actual Time 6:23 AM EDT 8:29 PM EDT
Civil Twilight 5:55 AM EDT 8:57 PM EDT
Nautical Twilight 5:22 AM EDT 9:30 PM EDT
Astronomical Twilight 4:46 AM EDT 10:06 PM EDT
Moon 11:36 PM EDT (6/16) 10:12 AM EDT (6/16)
Length of Visible Light 15h 01m
Length of Day
14h 06m
Waning Gibbous, 83% of the Moon is Illuminated
Jun 16
Waning Gibbous
Jun 19
Last Quarter
Jun 27
New
Jul 5
First Quarter
Jul 12
Full

Hourly Weather History & Observations

Time (EDT) Temp. Heat Index Dew Point Humidity Pressure Visibility Wind Dir Wind Speed Gust Speed Precip Events Conditions
12:52 AM 75.9 °F - 71.1 °F 85% 30.12 in 10.0 mi SSW 4.6 mph - N/A   Clear
1:52 AM 75.0 °F - 71.1 °F 87% 30.12 in 10.0 mi SW 4.6 mph - N/A   Clear
2:52 AM 77.0 °F - 70.0 °F 79% 30.11 in 10.0 mi WSW 5.8 mph - N/A   Clear
3:52 AM 75.9 °F - 69.1 °F 79% 30.11 in 10.0 mi WSW 3.5 mph - N/A   Clear
4:52 AM 75.0 °F - 68.0 °F 79% 30.11 in 10.0 mi SW 5.8 mph - N/A   Clear
5:47 AM 73.4 °F - 68.0 °F 83% 30.12 in 10.0 mi SSW 3.5 mph - N/A   Clear
5:52 AM 73.0 °F - 68.0 °F 84% 30.12 in 10.0 mi SSW 4.6 mph - N/A   Clear
6:52 AM 73.0 °F - 69.1 °F 87% 30.14 in 10.0 mi SSW 5.8 mph - N/A   Partly Cloudy
7:52 AM 77.0 °F - 69.1 °F 76% 30.15 in 10.0 mi WSW 4.6 mph - N/A   Partly Cloudy
8:52 AM 81.0 °F 84.4 °F 70.0 °F 69% 30.17 in 10.0 mi Variable 5.8 mph - N/A   Partly Cloudy
9:52 AM 82.9 °F 87.0 °F 70.0 °F 65% 30.18 in 10.0 mi NE 4.6 mph - N/A   Partly Cloudy
10:52 AM 84.9 °F 90.7 °F 72.0 °F 65% 30.17 in 10.0 mi NE 6.9 mph - N/A   Scattered Clouds
11:52 AM 84.9 °F 90.7 °F 72.0 °F 65% 30.18 in 10.0 mi NE 9.2 mph - N/A   Scattered Clouds
12:52 PM 84.9 °F 91.4 °F 73.0 °F 67% 30.17 in 10.0 mi NE 11.5 mph - N/A   Scattered Clouds
1:49 PM 86.0 °F 93.4 °F 73.4 °F 66% 30.16 in 10.0 mi ENE 12.7 mph - N/A Thunderstorm Thunderstorm
1:52 PM 86.0 °F 93.0 °F 73.0 °F 65% 30.16 in 10.0 mi ENE 13.8 mph - N/A Thunderstorm Thunderstorm
1:57 PM 86.0 °F 93.0 °F 73.0 °F 65% 30.16 in 10.0 mi ENE 13.8 mph - N/A   Scattered Clouds
2:52 PM 86.0 °F 93.0 °F 73.0 °F 65% 30.14 in 10.0 mi East 11.5 mph - N/A   Scattered Clouds
3:52 PM 86.0 °F 93.0 °F 73.0 °F 65% 30.13 in 10.0 mi East 9.2 mph - N/A   Scattered Clouds
4:52 PM 84.9 °F 91.4 °F 73.0 °F 67% 30.12 in 10.0 mi East 10.4 mph - N/A   Partly Cloudy
5:52 PM 84.0 °F 89.6 °F 72.0 °F 67% 30.11 in 10.0 mi East 9.2 mph - N/A   Partly Cloudy
6:52 PM 82.9 °F 88.8 °F 73.0 °F 72% 30.10 in 10.0 mi ESE 9.2 mph - N/A   Partly Cloudy
7:52 PM 81.0 °F 85.8 °F 73.0 °F 77% 30.14 in 10.0 mi ESE 6.9 mph - N/A   Partly Cloudy
8:52 PM 80.1 °F 84.2 °F 73.0 °F 79% 30.14 in 10.0 mi SSE 5.8 mph - N/A   Partly Cloudy
9:52 PM 78.1 °F - 73.0 °F 84% 30.14 in 10.0 mi South 3.5 mph - N/A   Partly Cloudy
10:52 PM 79.0 °F - 73.0 °F 82% 30.14 in 10.0 mi ESE 5.8 mph - N/A   Clear
11:52 PM 79.0 °F - 73.0 °F 82% 30.14 in 10.0 mi SE 5.8 mph - N/A   Partly Cloudy